Weather History for KSHD - March, 2014

Change the Weather History Date:

Wednesday, March 5, 2014

  Actual Average Record
Temperature  
Mean Temperature 28 °F -  
Max Temperature 43 °F 51 °F 78 °F (2004)
Min Temperature 13 °F 30 °F 13 °F (2014)
Degree Days  
Heating Degree Days 37    
Moisture  
Dew Point 16 °F    
Average Humidity 65    
Maximum Humidity 88    
Minimum Humidity 36    
Precipitation  
Precipitation 0.00 in - - ()
Sea Level Pressure  
Sea Level Pressure 30.21 in    
Wind  
Wind Speed 1 mph (NNE)    
Max Wind Speed 10 mph    
Max Gust Speed -    
Visibility 10 miles    
Events      
Averages and records for this station are not official NWS values.
T = Trace of Precipitation, MM = Missing Value Source: NWS Daily Summary

Daily Weather History Graph

Daily Weather History Graph

Search for Another Location

Airport or City:

Trip Planner

Search our weather history database for the weather conditions in past years. The results will help you decide how hot, cold, wet, or windy it might be!

Date:

Astronomy

Mar. 05, 2014 Rise Set
Actual Time 6:41 AM EST 6:12 PM EST
Civil Twilight 6:15 AM EST 6:39 PM EST
Nautical Twilight 5:44 AM EST 7:09 PM EST
Astronomical Twilight 5:14 AM EST 7:40 PM EST
Moon 9:10 AM EST (3/5) 11:15 PM EST (3/5)
Length of Visible Light 12h 23m
Length of Day
11h 31m
Waxing Crescent, 23% of the Moon is Illuminated
Mar 5
Waxing Crescent
Mar 8
First Quarter
Mar 16
Full
Mar 23
Last Quarter
Mar 30
New

Hourly Weather History & Observations

Time (EST) Temp. Windchill Dew Point Humidity Pressure Visibility Wind Dir Wind Speed Gust Speed Precip Events Conditions
12:15 AM 18.5 °F - 13.3 °F 80% 30.18 in 10.0 mi Calm Calm - N/A   Clear
12:35 AM 18.5 °F - 13.8 °F 82% 30.18 in 10.0 mi Calm Calm - N/A   Clear
12:55 AM 17.8 °F - 13.3 °F 83% 30.18 in 10.0 mi Calm Calm - N/A   Clear
1:15 AM 18.1 °F - 13.3 °F 81% 30.17 in 10.0 mi Calm Calm - N/A   Clear
1:35 AM 16.7 °F - 12.7 °F 84% 30.17 in 10.0 mi Calm Calm - N/A   Clear
1:55 AM 16.7 °F - 12.4 °F 83% 30.17 in 10.0 mi Calm Calm - N/A   Clear
2:15 AM 16.7 °F - 12.6 °F 84% 30.17 in 10.0 mi Calm Calm - N/A   Clear
2:35 AM 16.7 °F - 12.9 °F 85% 30.16 in 10.0 mi Calm Calm - N/A   Clear
2:55 AM 16.7 °F - 12.9 °F 85% 30.16 in 10.0 mi Calm Calm - N/A   Clear
3:15 AM 16.3 °F - 12.6 °F 85% 30.16 in 10.0 mi Calm Calm - N/A   Clear
3:35 AM 15.4 °F - 12.0 °F 86% 30.16 in 10.0 mi Calm Calm - N/A   Clear
3:55 AM 15.8 °F - 12.7 °F 88% 30.16 in 10.0 mi Calm Calm - N/A   Clear
4:15 AM 15.8 °F - 12.4 °F 86% 30.17 in 10.0 mi Calm Calm - N/A   Clear
4:35 AM 14.7 °F - 11.3 °F 86% 30.18 in 10.0 mi Calm Calm - N/A   Clear
4:55 AM 15.8 °F - 12.7 °F 88% 30.18 in 10.0 mi Calm Calm - N/A   Clear
5:15 AM 14.9 °F - 11.3 °F 86% 30.17 in 10.0 mi Calm Calm - N/A   Clear
5:35 AM 14.7 °F - 11.8 °F 88% 30.17 in 10.0 mi Calm Calm - N/A   Clear
5:55 AM 14.7 °F 9.0 °F 11.8 °F 88% 30.19 in 10.0 mi NNW 3.5 mph - N/A   Clear
6:15 AM 15.4 °F - 12.0 °F 86% 30.20 in 10.0 mi Calm Calm - N/A   Clear
6:35 AM 14.4 °F - 11.1 °F 87% 30.20 in 10.0 mi Calm Calm - N/A   Clear
6:55 AM 14.0 °F - 10.8 °F 87% 30.20 in 10.0 mi Calm Calm - N/A   Clear
7:15 AM 14.0 °F - 11.1 °F 88% 30.20 in 10.0 mi Calm Calm - N/A   Clear
7:35 AM 13.8 °F - 10.8 °F 88% 30.21 in 10.0 mi Calm Calm - N/A   Clear
7:55 AM 15.6 °F - 12.4 °F 87% 30.20 in 7.0 mi Calm Calm - N/A   Clear
8:15 AM 17.1 °F - 13.5 °F 86% 30.22 in 10.0 mi Calm Calm - N/A   Clear
8:35 AM 19.0 °F - 14.7 °F 83% 30.22 in 10.0 mi Calm Calm - N/A   Clear
8:55 AM 20.5 °F - 15.1 °F 80% 30.22 in 10.0 mi Calm Calm - N/A   Clear
9:15 AM 22.5 °F - 16.2 °F 77% 30.23 in 10.0 mi Calm Calm - N/A   Clear
9:35 AM 23.7 °F - 16.7 °F 75% 30.23 in 10.0 mi Calm Calm - N/A   Clear
9:55 AM 25.2 °F - 16.9 °F 71% 30.23 in 10.0 mi Calm Calm - N/A   Clear
10:15 AM 27.0 °F - 16.5 °F 65% 30.23 in 10.0 mi Calm Calm - N/A   Clear
10:35 AM 28.9 °F - 17.1 °F 61% 30.22 in 10.0 mi Calm Calm - N/A   Clear
10:55 AM 30.0 °F - 17.6 °F 60% 30.21 in 10.0 mi Calm Calm - N/A   Clear
11:15 AM 31.1 °F - 16.5 °F 55% 30.21 in 10.0 mi Calm Calm - N/A   Clear
11:35 AM 32.0 °F - 16.5 °F 53% 30.20 in 10.0 mi Calm Calm - N/A   Clear
11:55 AM 33.3 °F - 16.5 °F 50% 30.21 in 10.0 mi Calm Calm - N/A   Clear
12:15 PM 34.9 °F 32.0 °F 17.8 °F 50% 30.20 in 10.0 mi NNW 3.5 mph - N/A   Clear
12:35 PM 35.6 °F - 17.2 °F 47% 30.20 in 10.0 mi Calm Calm - N/A   Clear
12:55 PM 36.7 °F 32.9 °F 17.4 °F 46% 30.20 in 10.0 mi NE 4.6 mph - N/A   Clear
1:15 PM 37.4 °F 34.9 °F 17.6 °F 45% 30.18 in 10.0 mi NE 3.5 mph - N/A   Clear
1:35 PM 38.7 °F - 16.2 °F 40% 30.17 in 10.0 mi Calm Calm - N/A   Clear
1:55 PM 39.4 °F - 15.6 °F 38% 30.16 in 10.0 mi Calm Calm - N/A   Clear
2:15 PM 40.8 °F 38.8 °F 18.5 °F 41% 30.16 in 10.0 mi NNE 3.5 mph - N/A   Clear
2:35 PM 41.5 °F 39.6 °F 19.8 °F 42% 30.16 in 10.0 mi North 3.5 mph - N/A   Clear
2:55 PM 41.2 °F - 19.0 °F 41% 30.15 in 10.0 mi Calm Calm - N/A   Clear
3:15 PM 42.1 °F 40.2 °F 20.3 °F 42% 30.15 in 10.0 mi NNW 3.5 mph - N/A   Clear
3:35 PM 42.3 °F 40.5 °F 20.1 °F 41% 30.15 in 10.0 mi North 3.5 mph - N/A   Clear
4:00 PM 42.3 °F - 19.8 °F 41% 30.14 in 10.0 mi Calm Calm - N/A   Clear
4:15 PM 42.6 °F - 18.7 °F 38% 30.14 in 10.0 mi Calm Calm - N/A   Clear
4:35 PM 42.8 °F - 18.7 °F 38% 30.15 in 10.0 mi Calm Calm - N/A   Clear
4:55 PM 43.2 °F - 19.4 °F 39% 30.16 in 10.0 mi Calm Calm - N/A   Clear
5:15 PM 43.3 °F - 18.0 °F 36% 30.17 in 10.0 mi Calm Calm - N/A   Clear
5:35 PM 42.3 °F - 20.5 °F 42% 30.18 in 10.0 mi Calm Calm - N/A   Clear
5:55 PM 41.0 °F - 21.7 °F 46% 30.20 in 10.0 mi Calm Calm - N/A   Clear
6:15 PM 40.1 °F 38.0 °F 20.1 °F 45% 30.21 in 10.0 mi North 3.5 mph - N/A   Clear
6:35 PM 36.7 °F - 22.1 °F 56% 30.22 in 10.0 mi Calm Calm - N/A   Clear
6:55 PM 36.7 °F 34.1 °F 22.5 °F 56% 30.23 in 10.0 mi NNE 3.5 mph - N/A   Clear
7:15 PM 35.1 °F 31.0 °F 21.9 °F 59% 30.24 in 10.0 mi NE 4.6 mph - N/A   Clear
7:35 PM 34.0 °F 28.8 °F 21.7 °F 61% 30.24 in 10.0 mi NE 5.8 mph - N/A   Clear
7:55 PM 35.2 °F 27.6 °F 21.4 °F 57% 30.24 in 10.0 mi NE 10.4 mph - N/A   Clear
8:15 PM 34.2 °F 26.8 °F 20.1 °F 57% 30.25 in 10.0 mi ENE 9.2 mph - N/A   Clear
8:40 PM 32.9 °F 26.7 °F 19.0 °F 57% 30.27 in 10.0 mi NNE 6.9 mph - N/A   Clear
8:55 PM 33.1 °F 28.7 °F 18.5 °F 55% 30.28 in 10.0 mi NNE 4.6 mph - N/A   Clear
9:15 PM 31.8 °F 28.5 °F 19.0 °F 59% 30.30 in 10.0 mi NNE 3.5 mph - N/A   Clear
9:35 PM 32.0 °F 28.7 °F 18.1 °F 57% 30.32 in 10.0 mi NE 3.5 mph - N/A   Clear
9:55 PM 32.0 °F 28.7 °F 17.2 °F 55% 30.32 in 10.0 mi North 3.5 mph - N/A   Clear
10:15 PM 32.0 °F - 16.5 °F 53% 30.33 in 10.0 mi Calm Calm - N/A   Clear
10:35 PM 28.9 °F 25.2 °F 18.7 °F 66% 30.33 in 10.0 mi North 3.5 mph - N/A   Clear
10:55 PM 30.2 °F - 18.9 °F 63% 30.33 in 10.0 mi Calm Calm - N/A   Clear
11:15 PM 27.5 °F - 19.0 °F 71% 30.34 in 10.0 mi Calm Calm - N/A   Clear
11:35 PM 28.4 °F - 19.2 °F 69% 30.34 in 10.0 mi Calm Calm - N/A   Clear
11:55 PM 26.4 °F - 19.0 °F 74% 30.34 in 10.0 mi Calm Calm - N/A   Clear